Regional Weather Roundup
Issued by NWS

Home | Current Version | Previous Version | Graphics & Text | Print | Product List | Glossary On
Versions: 1 2 3 4 5 6 7 8 9 10 11 12 13 14 15 16 17 18 19 20 21 22 23 24 25 26 27 28 29 30 31 32 33 34 35 36 37 38 39 40 41 42 43 44 45 46 47 48 49 50
000
ASUS43 KDTX 021310
RWRMI
MICHIGAN HOURLY REGIONAL WEATHER ROUNDUP
NATIONAL WEATHER SERVICE DETROIT/PONTIAC MI
900 AM EDT MON MAY 02 2016

NOTE: "FAIR" INDICATES FEW OR NO CLOUDS BELOW 12,000 FEET WITH NO
SIGNIFICANT WEATHER AND/OR OBSTRUCTION TO VISIBILITY.

MIZ047>049-052>055-059>063-066>070-074>076-081>083-021400-
SOUTHEAST LOWER MICHIGAN

CITY           SKY/WX    TMP DP  RH WIND       PRES   REMARKS
ADRIAN         CLOUDY    47  45  93 N8        30.02R FOG
ALMA           CLOUDY    43  38  83 N6        30.06S
ANN ARBOR      CLOUDY    46  44  93 N7        30.01R FOG
BAD AXE        CLOUDY    42  39  88 NE12      30.06R
CARO           CLOUDY    42  40  91 NE5       30.04S
DETROIT CITY   CLOUDY    47  45  93 N9        30.01S FOG
DETROIT        CLOUDY    48  46  93 NW6       30.02R FOG
FLINT          CLOUDY    46  41  82 N7        30.05R
GROSSE ILE     CLOUDY    46  45  93 CALM      30.00R FOG
HILLSDALE      CLOUDY    44  44 100 NE6       30.01R FOG
HOWELL         CLOUDY    43  43  99 N5        30.03R FOG

CITY           SKY/WX    TMP DP  RH WIND       PRES   REMARKS
JACKSON        CLOUDY    44  42  93 N7        30.03R FOG
LAMBERTVILLE   CLOUDY    48  46  93 CALM      30.02R FOG
LANSING        CLOUDY    43  39  86 NE7       30.05R
LAPEER         CLOUDY    43  42  97 NE3       30.04R
MASON          CLOUDY    42  41  96 N6        30.03S FOG
MONROE         DRIZZLE   47  47  99 N7        30.01R
MT. CLEMENS    DRIZZLE   46  46 100 N8        30.01R FOG
PONTIAC        CLOUDY    44  43  96 N8        30.01R FOG
PORT HOPE        N/A     41  38  89 NE12      30.04R
PORT HURON     CLOUDY    43  43 100 N6        30.02R
TRI CITIES     CLOUDY    46  39  76 NE15      30.06S
MIDLAND        CLOUDY    46  37  71 NE8       30.05F
TROY           MIX PCPN  46  45  95 N6        30.04R
SAGINAW HB     CLOUDY    45  41  87 N9        30.05R
$$
MIZ043>046-050>051-056>058-064>065-071>073-077>080-021400-
SOUTHWEST LOWER MICHIGAN

CITY           SKY/WX    TMP DP  RH WIND       PRES   REMARKS
BATTLE CREEK   LGT RAIN  43  41  93 NE6       30.05R FOG
BENTON HARBOR  CLOUDY    47  41  80 NE6       30.03F
BIG RAPIDS     SUNNY     46  33  61 NE3       30.05S
COLDWATER      CLOUDY    44  44  99 N8        30.02R FOG
FREMONT        FAIR      47  33  58 NE6       30.05S
HOLLAND        SUNNY     49  39  68 NE8G20    30.05S
GRAND RAPIDS   MOSUNNY   48  39  71 NE10      30.05R
IONIA          CLOUDY    43  38  85 NE7       30.04S
KALAMAZOO      LGT RAIN  45  41  86 NE7       30.05R FOG
LUDINGTON      SUNNY     46  37  71 N3        30.08S
MARSHALL       RAIN      43  42  96 N5        30.03R
MOUNT PLEASANT CLOUDY    43  37  79 N6        30.05S
MUSKEGON       SUNNY     49  34  56 CALM      30.09R
SOUTH HAVEN    PTSUNNY   46  42  86 NE12      30.05S
$$
MIZ016>042-021400-
NORTHERN LOWER MICHIGAN

CITY           SKY/WX    TMP DP  RH WIND       PRES   REMARKS
ALPENA         CLOUDY    44  38  79 CALM      30.09R
BEAVER ISLAND  SUNNY     50  36  59 CALM      30.09R
BELLAIRE       CLOUDY    40  35  81 CALM      30.09S
CADILLAC       SUNNY     48  33  55 NE7       30.05S
CHARLEVOIX     CLOUDY    44  38  80 CALM      30.12S
FRANKFORT      SUNNY     47  39  74 CALM      30.08S
GAYLORD        CLOUDY    45  38  76 CALM      30.07R
GRAYLING       SUNNY     43  37  81 CALM      30.08S
HARBOR SPRINGS CLOUDY    44  34  68 CALM      30.09S
HOUGHTON LAKE  PTSUNNY   41  34  76 E5        30.07R
MANISTEE       SUNNY     46  37  71 CALM      30.09S
OSCODA         PTSUNNY   47  39  74 N6        30.06S
PELLSTON       CLOUDY    49  34  56 W3        30.09R
ROGERS CITY    MOSUNNY   46  34  61 N3        30.09S
TRAVERSE CITY  MOSUNNY   47  38  71 CALM      30.07S
$$
MIZ007>008-015-021400-
EASTERN UPPER MICHIGAN

CITY           SKY/WX    TMP DP  RH WIND       PRES   REMARKS
KINROSS          N/A     48  36  61 NW5       30.09R
MACKINAC ISLAN MOSUNNY   47  33  58 W6        30.08S
NEWBERRY       SUNNY     45  36  69 N3        30.09S
S. S. MARIE    PTSUNNY   50  35  56 CALM      30.08S
MUNISING         N/A     43  36  76 VRB3      30.12S
$$
MIZ004>006-011>014-085-021400-
CENTRAL UPPER MICHIGAN

CITY           SKY/WX    TMP DP  RH WIND       PRES   REMARKS
MANISTIQUE     SUNNY     45  37  71 N5        30.09S
ESCANABA       SUNNY     48  36  61 N5        30.10F
MENOMINEE      SUNNY     46  34  61 NW5       30.11S
SAWYER-GWINN   SUNNY     45  34  65 N6        30.14R
$$
MIZ001>003-009>011-084-021400-
WESTERN UPPER MICHIGAN

CITY           SKY/WX    TMP DP  RH WIND       PRES   REMARKS
IRON MOUNTAIN  SUNNY     44  31  60 NW6       30.11S
HOUGHTON       SUNNY     46  34  62 NW6       30.13S
COPPER HARBOR    N/A     42  36  79 N6        30.14S
IRONWOOD         N/A     37  34  87 CALM      30.10F
$$

ABBREVIATIONS USED IN REMARKS
   TC - TEMPERATURE IN CELSIUS
  WCI - WIND CHILL INDEX
   HX - HEAT INDEX
  VSB - VISIBILITY





USA.gov is the U.S. government's official web portal to all federal, state and local government web resources and services.